User: anonymous
Location: Mentone
(34.5413°N, 85.5351°W)
Time: 18:03:28
(UTC-05:00)
Language:

ERBS - Orbit

View from above orbital plane
View from above orbital plane
View from above satellite
View from above satellite

Ground track
Ground track

The orbit data is extracted from the following two-line orbital elements,

1 15354U 84108B   14206.50129670  .00002342  00000-0  94329-4 0  5372
2 15354 057.0154 332.5419 0011182 275.2346 084.7426 15.28853747635488
Epoch (UTC): 25 July 2014 12:01:52
Eccentricity: 0.0011182
inclination: 57.0154°
perigee height: 471 km
apogee height: 487 km
right ascension of ascending node: 332.5419°
argument of perigee: 275.2346°
revolutions per day: 15.28853747
mean anomaly at epoch: 84.7426°
orbit number at epoch: 63548

The dashed part of the orbit path shows where the satellite is in the earth's shadow,  

DLR